Temp
61 61 61 61 61 61 61 61 61 61 61 62 62 62 62 62 61 73 81 85 87 74 74 94 92 95 96 94 97 98 83 79 84 86 91 100 95 102 103 101 101 103 101 101 102
61 61 61 61 61 60 60 60 61 61 61 61 62 62 62 62 76 83 85 76 76 75 89 91 88 92 89 90 93 88 81 83 92 95 95 99 97 98 96 96 97 99 102 100 100
60 60 61 60 60 60 60 60 60 61 61 61 61 62 62 66 78 87 76 74 74 77 92 96 95 91 86 91 91 88 81 90 93 97 99 95 95 100 96 93 98 98 99 98 97
60 60 60 60 60 59 59 60 60 61 61 61 61 61 62 76 74 90 75 73 73 90 92 93 91 86 83 83 91 83 89 90 93 96 96 91 96 94 96 97 104 102 101 99 95
59 59 59 59 59 59 59 59 60 60 60 60 61 61 67 79 85 88 76 76 87 88 88 88 86 86 81 86 89 85 87 91 94 93 94 94 91 92 94 98 104 103 101 98 96
59 59 59 59 59 59 59 59 59 59 59 60 61 62 74 76 96 96 94 89 92 90 90 91 88 91 86 86 85 89 89 89 90 91 91 88 89 92 94 99 97 99 100 102 99
58 58 58 58 59 59 59 59 58 59 60 61 61 71 80 84 96 97 94 94 95 92 87 93 94 89 89 83 91 88 82 86 87 88 88 91 83 85 95 98 96 96 98 101 102
58 58 58 58 59 59 59 59 59 62 61 61 62 77 79 95 99 94 96 93 94 94 92 95 96 89 87 90 85 80 82 74 85 88 89 86 75 89 96 95 94 93 96 99 101
58 58 58 58 58 59 58 58 63 62 62 63 71 78 81 82 88 93 95 89 90 91 92 93 92 84 85 78 75 77 70 74 79 90 88 85 78 89 96 95 93 95 94 97 100
58 57 57 57 58 58 58 59 63 61 70 79 84 77 86 84 89 91 95 92 87 87 84 83 83 77 79 77 64 70 73 75 75 85 85 81 81 88 93 94 93 95 96 94 97
57 57 57 57 57 57 64 77 78 75 81 81 82 81 83 89 92 90 92 89 88 83 75 80 74 70 75 78 78 77 75 74 80 85 81 79 80 85 90 92 92 93 94 95 93
57 57 57 57 56 57 70 82 79 81 70 86 85 84 86 87 81 87 93 81 79 73 79 77 70 79 82 80 77 75 71 71 78 83 81 78 77 83 88 89 91 92 94 95 97
56 56 56 56 56 67 85 81 90 86 72 81 85 84 84 87 81 83 87 84 78 74 76 72 77 83 78 76 72 73 70 71 72 79 81 77 73 78 85 89 91 93 94 96 96
56 56 56 54 64 88 85 88 91 86 67 74 77 82 85 86 77 85 88 83 80 74 77 76 83 78 76 73 75 68 77 75 73 71 65 78 62 75 81 82 86 90 92 94 96
55 56 55 53 79 84 84 90 89 81 54 75 78 89 85 80 79 79 86 81 73 76 77 72 76 76 72 74 78 71 79 76 74 70 69 70 66 73 82 80 84 89 92 94 97
55 56 55 74 82 88 90 87 82 63 53 68 76 74 76 77 77 80 79 83 82 75 77 76 84 81 78 80 79 80 75 74 73 70 59 67 67 69 76 79 84 88 91 93 96
55 55 58 80 79 90 88 81 63 57 73 66 67 70 71 71 71 71 71 72 68 63 64 72 74 80 81 73 78 76 68 57 55 56 55 70 67 70 79 85 83 84 85 88 90
53 53 65 84 89 87 82 71 54 68 68 70 68 69 66 68 70 67 67 66 69 66 64 61 61 74 79 72 69 71 68 58 47 51 59 71 61 71 83 83 83 85 85 85 86
52 84 81 86 87 83 74 61 63 65 66 64 67 63 63 65 63 65 65 63 65 64 56 59 61 77 72 75 72 67 63 72 59 63 58 65 69 77 79 78 80 81 81 81 82
66 78 84 86 86 78 69 59 65 67 66 65 57 63 57 63 58 63 62 62 59 62 65 60 50 68 71 70 71 68 73 60 60 47 46 58 61 64 70 75 77 77 77 78 80
71 73 80 85 84 73 63 63 63 68 65 59 58 57 59 57 58 57 58 60 59 61 63 61 55 56 65 63 61 64 62 64 62 59 45 47 58 66 70 69 74 75 75 76 78
71 65 79 80 67 70 61 58 53 62 65 61 60 59 56 57 53 55 54 58 60 61 54 61 52 48 55 67 64 62 59 60 47 47 56 54 56 70 68 70 72 72 73 76 78
65 68 77 75 54 56 59 58 59 56 58 57 56 58 59 54 48 55 55 60 59 58 55 57 50 43 49 57 63 56 60 60 58 54 47 43 54 61 61 66 69 68 71 74 76
66 60 68 65 60 51 51 53 51 59 56 57 57 58 55 53 58 52 54 59 59 59 53 54 50 46 42 49 53 47 50 58 54 47 50 51 53 60 56 57 62 69 71 72 74
67 60 58 54 54 52 54 53 49 50 56 58 54 54 53 49 53 53 56 56 59 57 56 53 44 49 51 54 54 52 52 54 51 53 47 54 57 61 62 54 60 67 70 71 72
57 56 62 57 54 53 49 52 47 49 50 51 50 55 54 50 52 49 54 53 51 54 54 55 44 49 46 52 52 49 53 54 54 55 55 56 55 67 68 66 65 68 69 68 70
64 62 55 53 54 53 54 50 48 51 54 56 54 52 51 51 56 59 59 58 56 52 49 49 47 43 37 47 47 42 50 53 54 58 57 51 59 66 65 66 66 67 68 67 69
MSLP
1020.06 1019.52 1018.98 1018.48 1018.01 1017.60 1017.19 1016.77 1016.46 1016.16 1015.87 1015.59 1015.30 1014.96 1014.70 1014.59 1014.52 1013.93 1011.27 1009.85 1009.35 1010.04 1010.56 1009.42 1009.18 1008.15 1007.46 1006.39 1005.74 1005.22 1003.85 1001.88 1000.88 999.80 998.56 998.38 998.80 999.07 999.49 999.39 999.88 1000.40 1000.98 1001.91 1002.70
1019.91 1019.38 1018.80 1018.24 1017.74 1017.26 1016.87 1016.54 1016.23 1015.94 1015.65 1015.35 1015.07 1014.75 1014.45 1014.39 1013.25 1010.87 1009.02 1009.42 1010.03 1010.29 1009.75 1008.29 1007.92 1007.49 1006.65 1005.86 1005.15 1004.56 1003.41 1001.78 1001.18 999.99 998.90 998.55 998.98 999.09 999.49 999.78 999.73 1000.58 1001.36 1002.62 1003.26
1019.76 1019.16 1018.54 1017.94 1017.38 1016.86 1016.45 1016.09 1015.80 1015.58 1015.35 1015.16 1014.92 1014.68 1014.44 1014.14 1011.65 1008.66 1009.19 1009.64 1009.87 1010.13 1009.10 1007.67 1007.36 1006.93 1006.09 1005.22 1004.44 1004.22 1002.99 1001.92 1001.11 1000.41 999.68 999.24 999.33 999.29 999.13 999.10 999.48 999.72 1000.83 1002.60 1003.24
1019.58 1018.96 1018.34 1017.70 1017.04 1016.49 1016.09 1015.67 1015.41 1015.20 1014.98 1014.83 1014.73 1014.63 1014.52 1013.32 1009.06 1008.50 1009.52 1009.82 1010.02 1009.38 1008.53 1007.21 1006.84 1006.16 1005.64 1004.61 1004.19 1003.51 1003.00 1002.56 1001.57 1000.69 1000.50 1000.87 1000.76 999.98 999.81 999.71 999.22 1000.24 1001.14 1002.27 1003.08
1019.46 1018.70 1017.98 1017.35 1016.70 1016.09 1015.70 1015.24 1014.94 1014.68 1014.52 1014.48 1014.43 1014.45 1014.32 1010.97 1007.77 1008.73 1009.40 1009.84 1009.59 1009.30 1008.05 1007.04 1006.34 1005.64 1004.89 1004.30 1003.69 1003.16 1002.91 1002.48 1001.90 1001.78 1001.35 1001.51 1001.15 1000.72 1000.34 1000.71 999.93 1000.33 1001.11 1001.79 1002.81
1019.28 1018.53 1017.72 1017.01 1016.33 1015.75 1015.30 1014.84 1014.47 1014.20 1014.09 1014.09 1014.13 1014.28 1013.03 1008.92 1007.22 1007.70 1007.89 1008.76 1008.32 1008.32 1007.50 1006.91 1006.06 1005.36 1004.76 1004.20 1003.46 1002.98 1002.72 1002.44 1002.33 1001.80 1002.10 1001.93 1001.48 1001.23 1000.74 1000.87 1000.93 1000.70 1000.73 1000.79 1001.65
1019.10 1018.46 1017.69 1016.87 1016.05 1015.37 1014.88 1014.52 1014.12 1013.67 1013.54 1013.71 1013.86 1013.30 1010.52 1007.61 1007.24 1007.51 1007.81 1007.45 1007.28 1007.33 1007.04 1006.58 1006.12 1005.46 1004.99 1004.20 1003.83 1003.37 1002.76 1002.27 1002.27 1002.02 1001.63 1001.95 1001.23 1000.56 1000.63 1000.34 1000.10 1000.78 1000.74 1000.59 1000.69
1019.04 1018.26 1017.48 1016.74 1015.91 1015.13 1014.55 1014.12 1013.84 1013.38 1013.36 1013.61 1013.72 1012.38 1008.41 1007.00 1007.04 1007.17 1007.14 1007.00 1007.15 1007.03 1006.95 1006.43 1006.08 1005.83 1005.07 1004.49 1004.04 1003.70 1003.08 1002.00 1001.35 1001.35 1001.31 1001.93 1000.16 1000.08 1000.14 999.98 999.64 1000.04 1000.31 1000.22 1000.11
1018.94 1018.09 1017.28 1016.49 1015.67 1015.08 1014.54 1013.92 1013.66 1013.35 1013.41 1013.58 1013.12 1011.07 1006.75 1007.78 1006.94 1006.64 1006.47 1006.34 1006.85 1006.86 1006.76 1006.56 1006.11 1005.92 1005.31 1004.77 1003.89 1003.24 1002.06 1001.18 1000.58 1000.13 1000.01 1000.40 999.97 999.65 999.22 998.70 998.91 999.06 999.48 999.96 999.67
1018.82 1017.88 1016.98 1016.20 1015.45 1014.87 1014.36 1013.99 1013.61 1013.62 1013.04 1012.42 1010.89 1009.50 1006.70 1005.87 1006.11 1006.24 1006.27 1006.34 1006.35 1006.24 1006.54 1006.73 1006.19 1005.47 1004.79 1003.87 1002.63 1001.83 1001.06 1000.66 1000.18 999.38 999.66 1000.12 999.63 999.42 998.86 998.33 998.19 998.21 998.49 999.22 999.42
1018.66 1017.61 1016.79 1015.95 1015.10 1014.48 1013.74 1013.18 1012.74 1012.00 1010.47 1008.64 1007.57 1006.74 1005.92 1005.84 1006.20 1005.63 1005.96 1006.04 1005.91 1005.92 1005.23 1005.64 1005.10 1003.90 1003.50 1003.20 1002.87 1002.08 1001.29 1000.28 999.66 999.82 999.88 999.94 999.43 999.04 998.62 998.28 998.00 997.91 998.47 998.73 999.22
1018.59 1017.57 1016.57 1015.82 1014.96 1013.99 1013.67 1011.48 1011.84 1011.47 1009.53 1007.21 1006.89 1006.53 1006.23 1006.06 1005.12 1004.96 1005.52 1005.50 1005.26 1004.78 1004.53 1004.11 1003.61 1003.14 1002.88 1002.84 1002.54 1002.40 1002.06 1001.23 1000.80 1000.39 1000.17 1000.11 999.76 999.46 998.64 998.17 998.06 998.06 997.81 997.90 998.10
1018.63 1017.55 1016.50 1015.35 1014.60 1013.48 1011.87 1011.70 1011.10 1010.94 1009.37 1005.87 1005.86 1005.44 1005.36 1005.47 1004.41 1004.57 1005.30 1004.77 1004.24 1003.95 1003.38 1002.78 1002.04 1001.91 1002.48 1002.38 1002.44 1002.17 1001.87 1001.46 1000.99 1000.63 1000.20 1000.30 999.54 999.11 998.56 998.11 997.88 997.89 997.82 997.70 997.72
1018.49 1017.47 1016.42 1015.02 1014.36 1011.59 1010.56 1011.16 1010.76 1010.90 1008.28 1005.00 1005.28 1004.85 1005.06 1004.90 1004.80 1005.18 1005.20 1004.66 1003.79 1003.15 1002.60 1001.97 1001.69 1001.85 1001.71 1001.70 1001.93 1001.43 1001.73 1001.66 1001.42 1000.96 999.93 999.89 998.40 997.77 997.48 997.24 997.18 997.20 997.37 997.34 997.48
1018.28 1017.17 1016.09 1015.97 1013.44 1010.98 1011.35 1011.06 1010.93 1010.74 1007.06 1005.00 1004.42 1005.01 1004.82 1004.59 1004.74 1005.05 1005.54 1004.97 1003.96 1002.80 1002.62 1001.46 1001.02 1000.94 1001.00 1001.02 1001.36 1001.31 1001.48 1001.33 1000.98 1001.00 1000.67 999.90 998.66 996.91 996.28 995.84 995.79 996.00 996.40 996.67 996.78
1018.02 1017.04 1015.94 1013.85 1012.54 1011.04 1011.16 1011.09 1011.02 1009.31 1005.37 1004.90 1004.74 1004.66 1004.37 1004.66 1004.72 1004.81 1005.10 1005.22 1004.17 1003.48 1002.62 1001.64 1001.18 1000.57 1000.50 1000.69 1001.04 1001.41 1001.41 1001.35 1001.33 1000.82 999.97 999.29 998.58 996.42 995.86 995.68 995.65 995.94 996.46 996.48 996.53
1017.56 1016.61 1016.17 1013.63 1011.90 1011.36 1011.07 1010.44 1009.06 1006.69 1004.96 1004.96 1005.13 1005.62 1005.14 1004.58 1005.05 1005.42 1004.77 1004.49 1004.37 1003.66 1002.53 1001.57 1000.87 1000.76 1000.84 1001.01 1001.34 1001.30 1001.28 1000.92 1000.60 1000.06 998.77 998.70 997.88 996.57 996.09 995.67 996.08 996.58 997.54 998.06 998.26
1017.13 1015.81 1014.14 1012.63 1011.72 1011.38 1010.68 1009.47 1007.71 1005.47 1005.04 1006.34 1006.52 1006.28 1005.72 1005.77 1005.35 1005.93 1005.74 1005.25 1005.48 1005.63 1004.13 1002.34 1000.49 1000.17 1000.04 1001.23 1001.32 1000.85 1000.92 1000.38 999.91 999.41 998.09 997.38 996.70 995.97 996.26 996.74 997.72 998.05 998.73 999.34 999.47
1016.59 1012.96 1012.48 1011.92 1011.64 1011.49 1010.09 1008.10 1006.54 1006.74 1007.42 1007.38 1007.12 1006.32 1006.10 1006.67 1007.28 1006.39 1006.26 1006.70 1006.88 1007.83 1006.77 1004.40 1002.38 1001.40 1002.42 1002.59 1002.75 1001.67 1000.93 1000.58 1000.78 1000.09 998.89 997.46 996.60 996.34 996.78 997.60 998.13 998.68 999.61 1000.17 1000.71
1016.61 1012.89 1011.08 1011.85 1011.39 1010.96 1009.53 1007.92 1007.75 1008.91 1009.26 1008.71 1008.08 1007.36 1007.17 1006.70 1007.80 1007.09 1007.32 1008.63 1009.18 1009.91 1009.59 1007.50 1006.11 1004.14 1003.44 1004.40 1004.12 1003.20 1002.50 1001.54 1001.08 1000.52 999.67 998.38 997.54 996.74 996.75 997.56 998.52 999.57 1000.48 1001.24 1001.65
1015.77 1012.60 1012.16 1011.92 1010.92 1009.93 1008.80 1008.87 1009.80 1010.36 1011.04 1010.49 1009.59 1009.16 1008.96 1008.86 1009.18 1009.20 1008.82 1009.87 1010.94 1010.76 1010.89 1009.96 1008.90 1006.87 1005.50 1004.53 1004.44 1003.70 1003.00 1002.78 1002.63 1001.70 1000.99 1000.06 998.84 999.50 998.21 998.38 999.79 1000.70 1001.83 1002.04 1002.18
1015.49 1012.85 1012.82 1012.36 1011.06 1010.39 1010.50 1011.89 1012.63 1011.57 1011.84 1011.88 1011.64 1011.04 1010.78 1010.56 1010.65 1010.32 1010.27 1010.78 1012.40 1012.43 1011.84 1011.00 1010.72 1008.68 1007.04 1005.98 1006.50 1006.34 1005.54 1004.73 1004.35 1003.54 1002.67 1001.44 1000.96 1001.90 1002.18 1001.84 1002.17 1002.57 1003.04 1003.09 1002.84
1016.18 1014.03 1013.62 1012.79 1012.57 1012.69 1013.16 1013.10 1013.24 1013.19 1012.82 1012.61 1012.24 1012.25 1012.02 1011.96 1011.75 1010.99 1011.48 1012.31 1013.32 1013.46 1012.80 1012.57 1011.62 1009.82 1007.98 1007.18 1006.71 1006.97 1006.66 1006.20 1005.98 1005.68 1004.74 1004.18 1002.95 1004.50 1005.56 1004.21 1004.44 1004.02 1003.83 1003.89 1003.59
1016.88 1014.28 1013.59 1014.29 1015.04 1015.09 1014.46 1013.64 1013.82 1013.83 1013.99 1013.90 1013.28 1013.13 1012.88 1012.44 1012.03 1011.95 1011.77 1012.17 1013.60 1013.93 1014.54 1014.67 1013.15 1011.70 1009.86 1007.91 1008.59 1008.52 1008.34 1006.98 1007.16 1006.14 1004.82 1004.31 1004.09 1004.24 1005.83 1005.50 1005.70 1004.64 1004.41 1004.37 1004.09
1017.56 1016.19 1016.82 1014.98 1015.36 1015.90 1015.48 1015.00 1014.83 1014.42 1014.56 1014.41 1013.78 1013.61 1013.36 1012.96 1012.22 1011.61 1011.84 1012.34 1012.74 1013.61 1014.38 1014.38 1013.26 1012.18 1010.95 1010.00 1009.61 1009.12 1008.67 1008.12 1007.46 1006.99 1006.16 1004.72 1003.65 1003.35 1004.31 1006.62 1006.45 1006.04 1005.02 1004.67 1004.44
1019.20 1018.52 1017.42 1016.80 1016.64 1016.27 1015.64 1015.09 1015.84 1015.80 1015.86 1014.70 1014.45 1013.96 1014.21 1013.81 1013.34 1012.89 1012.62 1012.99 1013.26 1013.94 1013.66 1013.51 1013.30 1012.76 1011.68 1010.87 1010.10 1009.18 1008.55 1008.02 1007.51 1007.05 1006.31 1005.51 1004.63 1004.24 1004.37 1005.31 1006.56 1005.70 1005.16 1004.88 1004.89
1020.35 1020.20 1019.44 1017.26 1016.73 1016.32 1015.80 1016.45 1016.77 1016.94 1016.20 1015.80 1015.52 1015.35 1014.74 1015.02 1014.74 1014.27 1014.14 1013.98 1013.73 1013.53 1013.46 1013.64 1013.38 1012.92 1012.10 1011.49 1010.59 1008.96 1008.22 1007.49 1006.90 1006.45 1005.96 1005.16 1004.68 1004.52 1004.33 1004.55 1005.20 1005.31 1005.38 1005.26 1005.40
Wind_Speed
19 18 18 17 16 15 15 14 13 13 12 11 10 9 8 8 9 13 13 1 5 9 5 14 17 16 17 18 20 19 16 19 24 25 22 13 8 12 3 14 8 6 6 9 17
20 20 19 18 18 16 15 14 13 13 12 11 10 9 8 6 14 18 5 12 8 4 14 17 18 17 16 19 17 16 16 24 22 23 20 20 11 15 9 14 7 11 6 1 14
21 21 20 20 19 17 16 15 13 12 12 11 10 9 9 9 15 3 9 7 8 10 18 13 16 18 20 19 20 20 20 20 23 23 22 15 16 10 10 14 14 8 9 8 14
22 22 22 21 20 18 17 16 14 13 11 10 9 9 7 13 5 10 8 6 6 13 18 13 19 20 21 22 20 23 21 21 26 19 14 15 19 23 13 16 5 7 5 8 13
23 24 23 21 20 18 17 16 15 13 11 10 9 7 7 10 7 13 12 9 11 13 16 14 16 20 22 22 21 20 22 22 18 21 20 17 19 23 15 17 20 4 5 12 10
22 22 22 22 20 18 15 14 13 12 10 9 9 6 11 15 7 10 7 10 11 14 15 16 16 15 18 22 21 19 21 20 22 16 18 21 20 21 21 19 18 16 16 11 15
24 23 22 21 20 18 14 14 12 12 8 9 10 9 12 12 2 7 8 8 6 12 15 16 18 14 17 16 21 16 23 18 18 20 20 18 23 26 24 22 19 25 15 17 13
25 24 23 21 20 17 15 12 10 4 5 8 9 12 9 5 4 8 10 8 6 8 12 13 16 12 18 12 9 16 21 21 20 22 20 19 24 23 25 26 26 19 21 17 15
26 25 24 22 19 17 15 10 4 3 5 8 9 13 6 6 10 3 6 8 8 7 7 7 9 14 14 16 17 18 18 24 25 21 23 24 24 21 22 23 26 24 20 25 18
27 26 25 24 20 16 13 7 4 7 8 9 11 9 9 10 3 4 5 6 9 10 10 10 10 14 15 15 16 20 22 20 21 16 17 18 23 21 20 20 22 23 16 17 23
27 28 27 25 23 17 12 7 7 9 14 15 8 8 2 3 6 12 10 14 10 12 15 16 12 16 18 19 21 21 21 22 14 16 17 16 18 21 18 20 16 15 17 22 19
28 28 28 25 22 22 9 8 8 9 12 14 10 8 5 2 8 11 13 14 14 16 18 13 16 17 16 16 17 18 20 23 19 19 14 17 21 20 20 17 18 18 19 18 21
27 27 28 26 23 9 5 6 9 5 9 10 10 11 4 11 7 14 13 17 16 18 18 19 17 16 12 16 16 19 19 20 21 21 22 20 23 23 23 23 21 20 21 19 22
28 27 26 28 7 8 2 10 10 1 8 13 11 7 9 6 9 1 7 15 17 21 19 20 19 20 20 15 17 20 17 18 19 18 17 20 18 22 23 26 26 23 22 20 21
29 29 26 10 12 5 9 10 7 5 8 4 10 6 3 10 4 13 4 10 19 19 17 19 20 22 18 20 17 17 19 20 17 18 20 22 17 18 15 19 16 17 19 22 20
30 29 25 5 11 6 10 6 5 9 8 7 2 3 11 7 4 2 8 9 8 16 19 24 18 21 16 14 17 17 19 22 20 19 18 24 22 21 18 21 22 13 15 13 13
33 27 17 9 8 12 7 7 9 10 4 6 1 2 7 7 6 6 7 11 10 14 20 23 25 24 18 19 18 16 16 13 17 16 19 22 23 20 15 19 5 6 7 8 9
35 27 9 10 11 8 7 10 10 9 4 5 4 9 12 9 12 6 12 13 10 9 16 19 17 19 18 17 21 24 22 17 24 19 20 21 23 20 16 9 1 4 2 4 8
34 3 8 7 10 6 9 11 9 10 7 8 12 14 15 5 7 4 11 12 10 9 11 15 20 11 2 9 10 17 22 20 25 26 22 22 21 18 13 10 8 4 3 6 7
11 9 2 13 8 8 9 14 5 7 9 8 12 4 13 5 1 7 11 8 3 5 8 6 13 21 7 4 15 19 18 16 14 22 26 20 23 18 21 17 11 11 7 4 4
7 8 11 18 7 9 8 9 6 8 9 7 10 11 11 9 10 12 8 7 2 8 8 13 10 17 23 12 17 17 18 20 19 17 15 19 18 11 5 8 12 8 5 4 4
7 7 12 14 10 2 8 7 3 7 6 7 6 10 10 8 7 10 9 4 4 9 11 9 8 15 19 16 6 11 16 21 10 18 20 19 12 13 7 10 3 7 6 7 7
9 4 6 9 5 7 7 8 3 7 7 5 7 2 4 9 5 5 4 6 4 10 8 9 8 13 15 18 18 13 19 16 17 16 18 12 11 10 2 2 2 4 7 9 9
7 5 2 4 4 5 6 3 4 2 8 5 9 5 9 10 10 7 7 6 4 9 7 4 12 16 14 19 9 8 17 13 15 15 19 21 27 23 7 16 18 13 12 10 8
5 4 4 5 7 8 7 9 7 5 3 8 7 6 8 9 13 12 7 6 9 10 9 9 14 16 17 16 16 17 17 17 16 17 21 21 25 15 10 4 16 18 10 11 9
7 5 4 10 6 9 4 0 4 5 6 8 5 8 7 10 12 14 13 9 9 4 14 5 13 15 17 18 18 21 21 20 21 22 22 22 22 20 17 4 15 12 12 7 12
3 2 5 4 6 8 5 5 5 9 8 6 8 7 10 9 10 13 12 13 14 14 12 12 13 13 17 17 19 15 16 21 21 22 19 21 19 17 14 9 9 11 10 10 9
Wind_Direction
344 341 337 333 331 327 322 318 314 310 305 301 297 290 284 281 276 227 243 320 176 151 233 218 220 226 229 231 227 227 252 243 247 253 258 267 247 240 249 270 160 192 256 46 115
342 339 336 334 331 327 323 318 314 307 300 294 289 282 276 270 261 260 199 131 132 175 213 210 207 215 222 226 219 231 231 243 249 258 263 261 248 253 180 225 192 202 169 191 143
341 339 337 336 331 327 322 317 309 303 298 291 285 280 273 260 269 142 98 139 166 213 236 225 226 218 231 226 220 222 245 245 244 261 274 301 299 256 253 227 214 185 129 170 173
341 339 338 336 331 327 321 315 308 302 291 282 277 275 273 248 300 96 105 150 188 216 228 228 220 222 230 237 229 233 245 249 271 278 262 256 275 274 254 260 289 117 152 169 189
339 338 338 336 330 326 319 314 306 297 281 269 259 254 239 226 261 126 139 154 193 214 230 220 225 229 229 240 244 236 250 254 253 264 277 265 253 261 247 256 275 196 206 168 196
339 337 336 335 331 326 320 311 303 292 272 249 235 213 244 258 84 135 182 160 227 215 227 232 236 242 245 246 250 248 247 258 264 248 255 253 256 261 249 257 274 272 247 222 181
339 338 338 334 332 328 326 317 309 292 246 223 212 228 272 262 24 161 199 237 239 224 241 238 240 250 244 266 256 255 265 255 248 259 247 253 255 246 251 252 217 242 259 245 188
338 338 338 336 335 333 328 321 309 339 176 199 206 235 269 84 280 217 227 216 231 222 239 261 237 252 244 276 245 264 249 257 247 236 234 239 253 244 238 245 244 220 252 243 220
338 339 337 336 338 333 324 314 294 150 151 179 209 233 220 136 213 127 212 203 180 198 216 219 246 239 228 244 254 236 246 238 247 248 230 216 246 250 254 235 236 241 213 248 230
338 338 338 335 334 328 315 280 152 182 195 212 267 242 218 201 150 278 199 176 184 174 165 202 210 227 230 232 241 245 226 234 259 260 203 249 256 242 259 246 246 235 230 223 259
337 337 336 333 328 321 307 201 220 192 221 277 310 282 216 235 212 219 179 181 195 208 213 197 216 221 231 231 257 276 286 286 274 244 253 250 252 252 236 252 252 255 233 238 208
335 335 331 328 321 312 280 9 30 325 296 273 251 259 254 271 214 194 185 199 202 213 214 205 228 250 249 247 262 252 261 266 271 265 267 252 252 260 265 254 254 254 249 236 236
334 332 328 322 318 282 328 16 325 297 261 218 213 233 188 221 222 176 208 210 210 223 233 234 232 223 235 256 244 251 252 264 259 260 236 253 258 252 253 253 249 248 251 248 251
332 329 327 320 292 339 245 347 330 308 271 167 198 178 217 215 200 89 230 260 227 242 236 246 234 248 259 239 252 252 245 246 266 268 256 238 255 250 235 237 242 239 240 246 243
330 329 325 326 316 306 352 326 336 230 272 119 133 52 212 233 78 176 199 236 250 254 236 251 255 237 252 258 248 252 264 260 243 249 266 260 264 268 261 245 238 230 237 236 234
330 328 327 196 232 352 324 314 224 234 245 132 137 205 218 197 190 343 221 224 283 263 257 262 261 268 271 253 241 254 256 251 259 261 244 244 251 254 244 237 238 209 252 254 253
328 323 310 297 337 319 304 229 243 244 122 121 184 299 296 267 249 276 249 232 264 242 236 238 233 243 232 248 258 248 238 250 243 232 246 246 245 250 263 266 24 47 20 2 344
324 315 210 271 330 315 260 239 253 289 343 81 273 289 264 359 254 252 267 254 183 310 280 280 266 225 196 220 249 239 235 235 247 252 259 239 232 243 233 118 140 202 23 9 348
314 276 247 0 324 285 256 241 279 18 13 340 304 259 268 182 276 237 252 310 20 352 304 307 268 247 202 274 269 259 257 257 256 273 276 273 266 271 142 158 171 139 34 27 348
319 289 161 338 325 260 247 255 327 33 334 304 288 296 297 294 230 276 295 83 340 347 323 338 288 284 259 237 262 265 279 274 246 253 254 259 263 260 189 185 160 148 141 78 337
271 294 35 345 288 242 255 24 354 35 347 328 321 302 293 303 320 292 290 99 40 318 312 301 271 280 294 257 266 262 238 250 265 261 257 274 257 25 27 95 147 113 86 70 6
312 307 17 341 273 13 4 3 353 331 319 299 305 291 291 307 288 281 283 14 61 323 301 333 312 286 280 285 349 288 281 283 256 255 268 273 247 54 51 115 91 87 47 20 11
317 297 45 331 15 357 9 305 310 332 334 321 289 240 344 290 286 235 302 61 358 309 331 7 253 275 265 234 227 242 257 251 264 280 251 276 240 97 209 92 67 33 20 343 358
302 307 37 94 102 323 339 281 287 165 287 285 287 298 277 263 242 253 269 190 168 282 50 319 271 269 280 306 332 280 300 267 250 264 257 241 258 260 275 328 335 328 344 325 335
329 34 15 314 343 321 282 297 306 307 316 295 278 232 298 300 291 269 315 277 212 186 226 241 278 283 282 293 297 286 277 274 266 265 261 268 272 265 259 47 241 286 309 302 302
315 336 343 283 280 286 233 258 300 328 304 289 247 308 319 275 303 305 323 298 317 337 250 252 264 279 274 269 260 266 263 264 262 261 265 268 269 284 298 200 255 286 306 318 310
31 181 276 284 290 266 25 4 318 316 270 270 322 305 280 356 325 320 305 287 283 285 288 270 265 275 277 283 288 267 265 261 254 253 256 260 269 276 288 253 295 289 301 313 324